Regional Weather Roundup
Issued by NWS

Home | Current Version | Previous Version | Text Only | Print | Product List | Glossary On
Versions: 1 2 3 4 5 6 7 8 9 10 11 12 13 14 15 16 17 18 19 20 21 22 23 24 25 26 27 28
000
ASUS45 KTFX 081110
RWRMT
MONTANA REGIONAL WEATHER ROUNDUP
NATIONAL WEATHER SERVICE GREAT FALLS MT
400 AM MST THU DEC 08 2016

NOTE: "FAIR" INDICATES FEW OR NO CLOUDS BELOW 12000 FEET WITH NO
SIGNIFICANT WEATHER AND/OR OBSTRUCTIONS TO VISIBILITY.

MTZ001>007-043-081200-
WEST OF THE DIVIDE

CITY           SKY/WX    TMP DP  RH WIND       PRES   REMARKS
KALISPELL      CLEAR      2  -7  66 N10       30.45F WCI -14
MISSOULA       PTCLDY     8   1  73 E9        30.42F WCI  -5
BUTTE          CLOUDY    -5 -10  79 CALM      30.25F
MULLAN PASS    CLOUDY    -1  -4  87 SE8       30.11F FOG     WCI -15
ANACONDA         N/A     -6 -11  77 SW7       30.28F WCI -20
DEER LODGE       N/A      0  -6  78 CALM      30.33S
EUREKA           N/A      0  -6  78 CALM      30.53F
HAMILTON         N/A     10   5  79 NW3       30.37F
LIBBY            N/A     10   7  85 CALM      30.47F
PLAINS           N/A     14   5  67 CALM      30.43F
RONAN            N/A     12   6  77 CALM      30.39F
$$

MTZ008-052>055-081200-
SOUTHWEST MONTANA

CITY           SKY/WX    TMP DP  RH WIND       PRES   REMARKS
BOZEMAN        CLOUDY    -1  -6  79 S7        30.37F WCI -14
DILLON         CLOUDY    -6 -12  75 SW9       30.28F WCI -23
W YELLOWSTONE  CLOUDY   -20 -27  69 S3        30.23F
ENNIS          CLEAR     -4 -11  71 NE5       30.32F
THREE FORKS      N/A     -4 -58   6 NW1       30.33F
TWIN BRIDGES     N/A     -2 -12  62 SE5       30.26F
$$

MTZ009-010-012-014-046-048-049-054-081200-
EAST SLOPES AND CENTRAL MONTANA

CITY           SKY/WX    TMP DP  RH WIND       PRES   REMARKS
CUT BANK       CLOUDY   -10 -15  78 N7        30.49S WCI -25
GREAT FALLS    CLOUDY    -3  -8  79 E7        30.49F WCI -16
MALMSTROM AFB  CLOUDY    -4  -7  84 NE5       30.53S
HELENA         CLOUDY     2  -6  69 W5        30.43F
AUGUSTA        MOCLDY    -7 -11  85 NE6       30.41S WCI -20
BOWMANS CRNR   FLURRIES  -5  -8  87 NE8       30.39F WCI -20
CHOTEAU          N/A     -6  -9  84 MISG      30.49S
CONRAD           N/A     -6 -11  79 W3        30.45F
FAIRFIELD      FLURRIES  -5 -11  75 NE3       30.47F
RAYNESFORD     MOCLDY    -4  -9  78 E3        30.45F
ULM            FLURRIES  -2  -6  82 N7        30.50S WCI -15
$$

MTZ011-013-016-021-045-047-050-051-081200-
NORTH CENTRAL MONTANA

CITY           SKY/WX    TMP DP  RH WIND       PRES   REMARKS
HAVRE          CLOUDY   -11 -16  78 CALM      30.64F
LEWISTOWN      CLOUDY    -7 -12  79 E3        30.44F
N BAR RANCH    CLOUDY    -8 -15  71 CALM      30.43F
CHINOOK          N/A     -9 -15  77 CALM      30.67F
DENTON         MOCLDY    -9 -14  81 S8G17     30.48F WCI -26
GEYSER         CLOUDY    -4  -8  82 E3        30.44F
GRASS RANGE      N/A     -8 -12  80 SW1       30.45F
JUDITH GAP     FLURRIES  -1  -6  78 MISG      30.37F
ROY              N/A     -8 -13  78 MISG      30.50S
STANFORD       CLOUDY    -6 -10  81 N2        30.40F
WINIFRED         N/A     -6 -10  83 MISG      30.49F
$$

MTZ017>020-022>027-061-062-081200-
NORTHEAST MONTANA

CITY           SKY/WX    TMP DP  RH WIND       PRES   REMARKS
GLASGOW        CLOUDY    -2  -8  76 NW9       30.64F WCI -18
JORDAN           N/A    -10 -15  78 W8        30.61F WCI -26
SIDNEY         FLURRIES  -5  -9  83 CALM      30.65S
WOLF POINT     CLOUDY    -2  -8  76 W7        30.67F WCI -15
PLENTYWOOD       N/A     -4  -9  77 W16       30.59R WCI -25
POPLAR           N/A      0  -8  71 W12       30.66S WCI -18
SCOBEY           N/A     -3 -13  62 NW8       30.53S WCI -18
$$

MTZ028>42-056>058-081200-
SOUTHCENTRAL AND SOUTHEAST MONTANA

CITY           SKY/WX    TMP DP  RH WIND       PRES   REMARKS
BAKER          PTCLDY    -5 -10  79 W13       30.54F WCI -24
BILLINGS       PTCLDY    -2  -7  79 NE3       30.50F
LIVINGSTON     CLOUDY    -1  -7  75 E8        30.36S WCI -15
MILES CITY     CLEAR     -6 -12  75 W6        30.62S WCI -19
BIG TIMBER     CLOUDY    -2  -6  84 CALM      30.42S
EKALAKA          N/A     -7 -15  68 SW5       30.41S
FORSYTH          N/A     -2  -8  78 CALM      30.61F
LAUREL           N/A     -1 -11  63 N5        30.42F
$$

REGIONAL REPORTS...DAKOTAS

CITY           SKY/WX    TMP DP  RH WIND       PRES   REMARKS
WILLISTON      CLOUDY     0  -6  76 W9        30.63S WCI -15
MINOT          LGT SNOW   4  -1  80 NW23      30.54R WCI -18
DICKINSON      PTCLDY    -7 -12  79 NW16      30.52R WCI -29
BEACH          CLOUDY    -4  -8  84 W12       30.59R WCI -22
CROSBY         CLOUDY     0  -6  78 NW16      30.61S WCI -21
TIOGA          FLURRIES   0  -2  92 W14       30.56S WCI -19
WATFORD CITY   CLOUDY    -2  -9  71 W8        30.61S WCI -17
BISMARCK       CLOUDY     4  -1  80 NW21G29   30.55S WCI -17
GRAND FORKS    MIX PCPN  17  11  77 NW23      30.38R WCI  -1
FARGO          MIX PCPN  17  11  77 NW21G32   30.37R WCI   0
BUFFALO SD       N/A     -5 -10  79 NW12      30.44S WCI -23
RAPID CITY     CLEAR     -3  -9  75 NW8       30.52S WCI -18
$$

REGIONAL REPORTS...WYOMING/IDAHO/WASHINGTON

CITY           SKY/WX    TMP DP  RH WIND       PRES   REMARKS
GILLETTE       CLOUDY   -14 -17  87 S3        30.44F
SHERIDAN       CLOUDY   -11 -17  75 S5        30.47F
BUFFALO WY     CLOUDY    -1 -13  56 SW8       30.37F WCI -15
CODY           CLOUDY    -9 -13  83 S7        30.36F WCI -24
YELLOWSTONE LA   N/A    -12 -15  86 NW3       30.16S
IDAHO FALLS    CLOUDY     2  -3  80 N6        30.32F WCI  -9
SALMON         CLOUDY    -4  -8  84 CALM      30.36F
BOISE          MOCLDY    17  10  74 S7        30.31F WCI   8
SPOKANE        PTCLDY    14   6  70 NE7       30.35F WCI   4
$$

REGIONAL REPORTS...ALBERTA

CITY           SKY/WX    TMP DP  RH WIND       PRES   REMARKS
EDMONTON       PTCLDY   -15 -22  70 N3        30.70F
CALGARY        PTCLDY   -13 -20  70 CALM      30.51F
LETHBRIDGE     CLEAR    -18 -24  76 W6        30.59F WCI -33
MEDICINE HAT   CLEAR    -18 -24  76 SW5       30.67F
WATERTON GATE    N/A    -31 -38  68 E1          N/A
CARDSTON         N/A    -22 -27  76 SW5         N/A
MILK RIVER       N/A    -18 -24  76 NW6         N/A  WCI -33
ONEFOUR          N/A    -13 -18  77 NW9         N/A  WCI -31
$$

REGIONAL REPORTS...SASKATCHEWAN

CITY           SKY/WX    TMP DP  RH WIND       PRES   REMARKS
SWIFT CURRENT  FLURRIES  -8 -11  84 W8        30.57S WCI -23
REGINA         PTCLDY    -8 -11  84 W10       30.61S WCI -26
SASKATOON      CRYSTALS  -4  -9  77 NW5       30.68S
CYPRESS HILLS    N/A    -13 -18  77 NW3         N/A
VAL MARIE        N/A    -15 -20  76 W1          N/A
ROCKGLEN         N/A     -9 -13  84 NW5         N/A
ASSINIBOIA       N/A    -15 -18  84 NW5         N/A
$$




USA.gov is the U.S. government's official web portal to all federal, state and local government web resources and services.